Oriental Freesia — ZGCD7 — position and weather

sailwx.info

Track history (hours):
 
Tides and Currents Weather Stations Pressure Air Temp Water Temp Dewpoint Dewpoint Depression Visibility Wind Speed Wind Dir Waves Ship Positions

Oriental Freesia

Last reported at 2015-May-28 03:16 UTC. Time now 2015-May-28 10:12 UTC.
Position N 40°46' E 029°40'.

Length 134 m; draft 8.4 m.

Type: Ship (hazmat cat A). MMSI: 319349000.

Date/timePositionNaut miles runAvg speedWind from/ knotsBaromVisibWave heightAir tempDewpointWater temp
2015-May-28 03:16N 40°46' E 029°40'15 0.3
2015-May-26 02:33N 40°44' E 029°21'4 3.9
2015-May-26 01:33N 40°44' E 029°16'7 7.3
2015-May-26 00:33N 40°44' E 029°06'1211.9
2015-May-25 23:33N 40°43' E 028°50'229 9.5
2015-May-24 23:32N 37°42' E 025°51'1414.0
2015-May-24 22:33N 37°28' E 025°54'12513.2
2015-May-24 13:09N 35°50' E 027°29'912.5
2015-May-24 12:28N 35°45' E 027°37'1413.4
2015-May-24 11:26N 35°45' E 027°54'1213.3
2015-May-24 10:33N 35°45' E 028°09'  
2015-May-20 22:11N 31°20' E 032°23'710.6
2015-May-20 21:33N 31°14' E 032°21'11 7.8
2015-May-20 20:12N 31°03' E 032°19'  
Track history (hours):
 
Tides and Currents Weather Stations Pressure Air Temp Water Temp Dewpoint Dewpoint Depression Visibility Wind Speed Wind Dir Waves Ship Positions

Oriental Freesia

Last reported at 2015-May-28 03:16 UTC. Time now 2015-May-28 10:12 UTC.
Position N 40°46' E 029°40'.

Length 134 m; draft 8.4 m.

Type: Ship (hazmat cat A). MMSI: 319349000.

Date/timePositionNaut miles runAvg speedWind from/ knotsBaromVisibWave heightAir tempDewpointWater temp
2015-May-28 03:16N 40°46' E 029°40'15 0.3
2015-May-26 02:33N 40°44' E 029°21'4 3.9
2015-May-26 01:33N 40°44' E 029°16'7 7.3
2015-May-26 00:33N 40°44' E 029°06'1211.9
2015-May-25 23:33N 40°43' E 028°50'229 9.5
2015-May-24 23:32N 37°42' E 025°51'1414.0
2015-May-24 22:33N 37°28' E 025°54'12513.2
2015-May-24 13:09N 35°50' E 027°29'912.5
2015-May-24 12:28N 35°45' E 027°37'1413.4
2015-May-24 11:26N 35°45' E 027°54'1213.3
2015-May-24 10:33N 35°45' E 028°09'  
2015-May-20 22:11N 31°20' E 032°23'710.6
2015-May-20 21:33N 31°14' E 032°21'11 7.8
2015-May-20 20:12N 31°03' E 032°19'  

Dump ship's entire track history